Terminal Aerodrome Forecast
Issued by NWS Jacksonville, FL

Home | Current Version | Previous Version | Text Only | Print | Product List | Glossary On
Versions: 1 2 3 4 5 6 7 8 9 10 11 12 13 14 15
000
FTUS42 KJAX 300544
TAFSSI
TAF
KSSI 300544Z 3006/0106 26008KT P6SM FEW050
     FM301600 21011KT P6SM FEW050=

USA.gov is the U.S. government's official web portal to all federal, state and local government web resources and services.